Regional Weather Roundup
Issued by NWS

Home | Current Version | Previous Version | Text Only | Print | Product List | Glossary On
Versions: 1 2 3 4 5 6 7 8 9 10 11 12 13 14 15 16 17 18 19 20 21 22 23 24 25 26 27 28 29 30 31 32 33 34 35 36 37 38 39 40 41 42 43 44 45 46 47 48 49 50
272
ASUS44 KLIX 242111
RWRLA
LOUISIANA WEATHER ROUNDUP
NATIONAL WEATHER SERVICE NEW ORLEANS LA
400 PM CDT WED AUG 24 2016

NOTE: "FAIR" INDICATES FEW OR NO CLOUDS BELOW 12,000 FEET WITH NO
      SIGNIFICANT WEATHER AND/OR OBSTRUCTIONS TO VISIBILITY.
      SKY/WX - SKY CONDITION AND SIGNIFICANT WEATHER.
      TMP - AIR TEMPERATURE.    DP   - DEWPOINT TEMPERATURE.
      RH  - RELATIVE HUMIDITY.  PRES - PRESSURE.
      HX  - HEAT INDEX.         WCI  - WIND CHILL INDEX.

*  THESE STATIONS ARE NOT NWS OR FAA STATIONS AND ARE NOT UNDER
   NWS QUALITY CONTROL.

LAZ040-048-061>063-065-066-069-242200-
SOUTHEAST LOUISIANA

CITY           SKY/WX    TMP DP  RH WIND       PRES   REMARKS
N.O. AUDUBON     N/A     93  77  59 MISG        N/A  HX 106
N.O. INTL ARPT CLOUDY    94  76  55 S6        30.09S HX 106
N.O. LAKEFRONT CLOUDY    90  76  63 SE7       30.10S HX 101
N.O. DOWNTOWN* FAIR      92  76  59 CALM      30.10S HX 104
RESERVE*       FAIR      95  73  48 CALM      30.09F HX 104
SLIDELL        TSTM      77  74  90 E7        30.12R
BATON ROUGE    TSTM      91  77  63 NE3       30.07F HX 104
BOOTHVILLE     MOSUNNY   91  78  65 NE6       30.09F HX 106
BELLE CHASSE   PTSUNNY   92  77  61 CALM      30.09S HX 105
BOGALUSA*      FAIR      92  74  56 E3        30.11S THUNDER HX 102
GALLIANO*      CLEAR     93  75  56 NE3       30.10R HX 104
NEW ROADS*     FAIR      88  76  66 NW5       30.08F HX  98
GONZALES*      FAIR      93  74  55 E5        30.08F HX 103
HAMMOND*       CLOUDY    77  73  88 NW6       30.09F
HOUMA*         NOT AVBL
PORT FOURCHON* CLEAR     90  75  62 E6G12     30.09S HX 100

$$

LAZ041-044-053-054-242200-
SOUTHWEST LOUISIANA

CITY           SKY/WX    TMP DP  RH WIND       PRES   REMARKS
LAKE CHARLES   MOSUNNY   89  75  63 SW7       30.08F HX  99
LAFAYETTE      PTSUNNY   94  76  55 VRB3      30.08F HX 106
PATTERSON      CLOUDY    91  77  63 CALM      30.09F HX 104
SALT POINT       N/A     91  77  63 VRB5      30.07F HX 104
NEW IBERIA     CLOUDY    91  77  63 S6        30.08F HX 104
CHENAULT AIRPK MOSUNNY   95  73  49 CALM      30.07F HX 105

$$

LAZ027-028-242200-
CENTRAL LOUISIANA

CITY           SKY/WX    TMP DP  RH WIND       PRES   REMARKS
FORT POLK      SUNNY     92  74  55 SW8       30.08F HX 102
ALEXANDRIA INT SUNNY     93  74  53 VRB5      30.06F HX 103
ALEXANDRIA     PTSUNNY   90  77  65 MISG      30.09F HX 103

$$

LAZ001-002-242200-
NORTHWEST LOUISIANA

CITY           SKY/WX    TMP DP  RH WIND       PRES   REMARKS
SHREVEPORT     MOSUNNY   92  75  57 S7        30.08F HX 103
BARKSDALE AFB  MOSUNNY   93  74  53 S8        30.08F HX 102
DTN SHREVEPORT MOSUNNY   92  73  53 S7        30.08F HX 100

$$

LAZ014-016-242200-
NORTHEAST LOUISIANA

CITY           SKY/WX    TMP DP  RH WIND       PRES   REMARKS
MONROE         MOSUNNY   93  76  57 CALM      30.09F HX 105
TALLULAH       MOSUNNY   94  77  57 NE5       30.09F HX 108

$$





USA.gov is the U.S. government's official web portal to all federal, state and local government web resources and services.